Regional Weather Roundup
Issued by NWS

Home | Current Version | Previous Version | Graphics & Text | Print | Product List | Glossary On
Versions: 1 2 3 4 5 6 7 8 9 10 11 12 13 14 15 16 17 18 19 20 21 22 23 24 25 26 27 28 29 30 31 32 33 34 35 36 37 38 39 40 41 42 43 44 45 46 47 48 49 50
000
ASUS45 KCYS 021710
RWRWY

WYOMING REGIONAL WEATHER ROUNDUP
NATIONAL WEATHER SERVICE CHEYENNE WY
1000 AM MST FRI DEC 02 2016

NOTE:  "FAIR" INDICATES FEW OR NO CLOUDS BELOW 12,000 FEET
WITH NO SIGNIFICANT WEATHER AND/OR OBSTRUCTIONS TO VISIBILITY.

WYZ001-021800-
YELLOWSTONE NATIONAL PARK

CITY           SKY/WX    TMP DP  RH WIND       PRES   REMARKS
LK YELLOWSTONE   N/A     19  13  77 VRB3      30.14S
W YELLOWSTONE  NOT AVBL

$$
WYZ002>013-054>058-071-098>099-021800-
NORTHERN WYOMING

CITY           SKY/WX    TMP DP  RH WIND       PRES   REMARKS
JACKSON        SUNNY     16  12  86 CALM      30.20S
CODY           FAIR      29  16  58 CALM      30.18
GREYBULL       CLOUDY    29  24  82 CALM      30.22R
WORLAND        CLOUDY    31  24  75 SE6       30.21R WCI  25
SHERIDAN       FAIR      32  23  69 SE3       30.20R
BUFFALO        FAIR      35  18  49 E3        30.18R
GILLETTE       CLOUDY    31  25  78 W7        30.18S WCI  24
HULETT         PTSUNNY   28  23  80 SW6       30.20R WCI  22
NEWCASTLE      FAIR      27  21  80 NW6       30.20R WCI  20

$$
WYZ014>020-022>026-101>103-021800-
CENTRAL WYOMING

CITY           SKY/WX    TMP DP  RH WIND       PRES   REMARKS
BIG PINEY      FAIR      16  11  80 CALM      30.17R
PINEDALE       FAIR      16   9  73 CALM      30.17S
DUBOIS         FAIR      14   3  62 NW8       30.13S WCI   3
LANDER         CLOUDY    24  20  84 CALM      30.19R
RIVERTON       CLOUDY    26  14  60 CALM      30.20R
CASPER         CLOUDY    28  24  85 SW5       30.18R WCI  23
DOUGLAS        PTSUNNY   30  25  81 NW8       30.20R WCI  22

$$
WYZ021-027>030-104>119-021800-
SOUTHERN WYOMING

CITY           SKY/WX    TMP DP  RH WIND       PRES   REMARKS
EVANSTON       HAZE      16  11  80 CALM      30.15R VSB 1/4
FORT BRIDGER   SUNNY     18  16  93 NW6       30.20R WCI   9
ROCK SPRINGS   CLOUDY    15  12  88 W7        30.17R WCI   5
DIXON          FAIR      14   7  72 CALM      30.19R
RAWLINS        CLOUDY    18  14  84 CALM      30.15R FOG
SARATOGA       CLOUDY    16  12  86 CALM      30.16R
LARAMIE        LGT SNOW  16  13  88 N5        30.12R FOG     WCI   9
CHEYENNE       CLOUDY    28  14  55 NE7       30.16R WCI  21
TORRINGTON     FAIR      31  23  72 W8        30.22R WCI  23
PINE BLUFFS    CLOUDY    30  23  74 N6        30.21R WCI  24

$$



USA.gov is the U.S. government's official web portal to all federal, state and local government web resources and services.